Location: Gollag?dem
(16.8053°N, 80.8024°E)
Time: 09:34:52
(UTC+00:00)

CZ-4B R/B - Pass Details

Date: 13 August 2020
Orbit: 486 x 652 km, 97.9° (Epoch: 18 September)

Event Time Altitude Azimuth Distance (km) Brightness Sun altitude
Rises 23:12:39 0° 16° (NNE) 2,929 7.1 -16.2°
Reaches altitude 10° 23:14:55 10° 20° (NNE) 2,002 6.2 -15.7°
Maximum altitude 23:19:14 63° 101° (E) 683 3.5 -14.7°
Drops below altitude 10° 23:23:21 10° 182° (S) 1,909 5.4 -13.8°
Sets 23:25:28 0° 185° (S) 2,780 6.2 -13.3°
